Regional Weather Roundup
Issued by NWS

Home | Current Version | Previous Version | Graphics & Text | Print | Product List | Glossary On
Versions: 1 2 3 4 5 6 7 8 9 10 11 12 13 14 15 16 17 18 19 20 21 22 23 24 25 26 27 28 29 30 31 32 33 34 35 36 37 38 39 40 41 42 43 44 45 46 47 48 49 50
000
ASUS43 KDMX 231101
RWRIA

WEATHER ROUNDUP FOR IOWA
NATIONAL WEATHER SERVICE DES MOINES IA
500 AM CST FRI FEB 23 2018

NOTE: "FAIR" INDICATES FEW OR NO CLOUDS BELOW 12,000 FEET WITH NO
SIGNIFICANT WEATHER AND/OR OBSTRUCTIONS TO VISIBILITY.

* - THESE STATIONS ARE NOT NWS STATIONS...THUS NOT UNDER NWS
QUALITY CONTROL.  THEY ALSO DO NOT REPORT WEATHER SUCH
AS PRECIPITATION OR FOG.

IAZ001>003-012>014-020>022-031>034-043>046-231200-
   NORTHWEST IOWA

CITY           SKY/WX    TMP DP  RH WIND       PRES   REMARKS
CARROLL *      MOCLDY    27  25  93 W12G18    30.15R WCI  16
CHEROKEE *     CLEAR     19  19  98 W6        30.14S WCI  11
DENISON *      PTCLDY    25  23  93 W8        30.18R WCI  16
LE MARS *      CLEAR     16  14  93 W7        30.15S FOG     WCI   6
ORANGE CITY *  CLEAR     18  18 100 W10       30.12F FOG     WCI   6
SHELDON *      CLOUDY    19  19 100 W16       30.12R FOG     WCI   5
SIOUX CITY     CLOUDY    17  15  92 W7        30.17R WCI   8
SPENCER        CLOUDY    24  20  84 W18       30.11R WCI  10
STORM LAKE *   PTCLDY    21  19  93 W13       30.12S FOG     WCI   9
$$

IAZ055>058-069>071-079>083-090>094-231200-
   SOUTHWEST IOWA

CITY           SKY/WX    TMP DP  RH WIND       PRES   REMARKS
ATLANTIC *     CLOUDY    28  28 100 W8        30.18R WCI  20
AUDUBON *      CLOUDY    27  25  93 W6        30.16S WCI  20
CLARINDA *     CLOUDY    32  32 100 W8        30.22R WCI  25
COUNCIL BLFS * CLEAR     27  27 100 NW8       30.18R WCI  18
CRESTON *      CLOUDY    30  30 100 W15       30.17R WCI  19
HARLAN  *      CLEAR     25  25 100 W10       30.20S WCI  15
LAMONI         CLOUDY    32  30  92 W13       30.16R WCI  22
RED OAK *      CLOUDY    30  28  93 W7        30.20R WCI  23
SHENANDOAH *   CLOUDY    30  28  93 W8G14     30.22R WCI  23
$$

IAZ047>049-059>061-072>074-084-231200-
   CENTRAL IOWA

CITY           SKY/WX    TMP DP  RH WIND       PRES   REMARKS
AMES           CLOUDY    33  29  85 W14       30.13R WCI  23
ANKENY *       CLOUDY    32  32 100 W12G20    30.16R WCI  23
BOONE *        CLOUDY    30  28  93 MISG      30.12R
CHARITON *     CLOUDY    32  32 100 W14G21    30.15R WCI  22
DES MOINES     CLOUDY    33  30  88 W13       30.15R WCI  24
GRINNELL*      CLOUDY    32  32 100 W10       30.13R WCI  24
KNOXVILLE *    CLOUDY    32  32 100 W15       30.14R WCI  22
MARSHALLTOWN   CLOUDY    32  32 100 W13       30.11R WCI  22
NEWTON *       CLOUDY    32  32 100 W12       30.13R WCI  23
PELLA *        CLOUDY    33  32  99 W9        30.15R WCI  25
$$

IAZ004>006-015-016-023>025-035-036-231200-
   NORTH CENTRAL IOWA

CITY           SKY/WX    TMP DP  RH WIND       PRES   REMARKS
CLARION *      CLOUDY    28  28 100 W17G24    30.12R WCI  16
ESTHERVILLE    CLOUDY    23  21  92 W17       30.08S WCI   9
FORT DODGE *   CLOUDY    26  24  92 W8        30.13R WCI  18
MASON CITY     CLOUDY    30  27  88 W18G25    30.08S WCI  18
FOREST CITY *  CLOUDY    30  28  93 W12       30.08R WCI  21
WEBSTER CITY * CLOUDY    28  27  93 W22       30.11R WCI  15
IOWA FALLS *   CLOUDY    33  32  98 W14       30.11R WCI  23
$$

IAZ007>011-017>019-026>030-037>042-050>054-066-231200-
   NORTHEAST IOWA

CITY           SKY/WX    TMP DP  RH WIND       PRES   REMARKS
CEDAR RAPIDS   CLOUDY    34  34 100 SW9       30.09R WCI  27
CHARLES CITY * CLOUDY    32  32 100 W14       30.07S WCI  22
CLINTON *      FOG       36  36 100 SW6       30.10F VSB 1/2 WCI  31
DECORAH *      CLOUDY    32  32 100 VRB6      30.04R FOG     WCI  26
DUBUQUE        CLOUDY    35  34  96 SW14      30.07R FOG     WCI  26
MONTICELLO *   CLOUDY    36  36 100 SW5       30.09R WCI  32
OELWEIN *      CLOUDY    34  34 100 W14       30.08R WCI  24
WATERLOO       CLOUDY    32  32 100 W10       30.09R WCI  24
$$

IAZ064-065-067-068-078-231200-
   EAST CENTRAL IOWA

CITY           SKY/WX    TMP DP  RH WIND       PRES   REMARKS
DAVENPORT      CLOUDY    39  37  92 SW8       30.11S WCI  33
IOWA CITY      CLOUDY    36  35  96 W7        30.13R WCI  30
MT. PLEASANT * CLOUDY    34  34 100 SW7       30.13S FOG     WCI  28
MUSCATINE *    CLOUDY    37  37 100 CALM      30.13R
QUAD CITIES    CLOUDY    39  39 100 SW9       30.10F WCI  33
$$

IAZ062-063-075>077-085>089-095>099-231200-
   SOUTHEAST IOWA

CITY           SKY/WX    TMP DP  RH WIND       PRES   REMARKS
BURLINGTON     CLOUDY    37  37 100 SW6       30.13R WCI  32
FAIRFIELD *    CLOUDY    34  34 100 W7        30.13R WCI  28
FORT MADISON * CLOUDY    37  37 100 W5        30.14S WCI  34
KEOKUK *       CLOUDY    37  36  93 SW7       30.14R WCI  32
OSKALOOSA *    CLOUDY    32  32 100 W10       30.14R WCI  24
OTTUMWA        CLOUDY    34  33  96 W10       30.14R WCI  26
WASHINGTON *   CLOUDY    36  36 100 W7        30.13S WCI  30
$$

ABBREVIATIONS USED IN REMARKS
   TC - TEMPERATURES IN CELSIUS
  WCI - WIND CHILL INDEX
   HX - HEAT INDEX
  VSB - VISIBILITY
$$





USA.gov is the U.S. government's official web portal to all federal, state and local government web resources and services.